Hit Tracker is now ESPN Home Run Tracker! Hit Tracker founder Greg Rybarczyk is now collaborating with the ESPN Stats & Information Group to continue tracking all MLB home runs, and helping baseball fans know "How Far It Really Went!™" Please credit any information on this site to ESPN Stats & Information Group. For more information and analysis on home runs, please contact founder Greg Rybarczyk. E-Mail ESPN Home Run Tracker
Main Page | Ballparks | Park Overlays | Glossary | Highlight Homers | Feedback | Bio | 3 Types of HR's | AAA Home Run Derby Last Updated: May 26, 2015, 10:52 pm PST
Welcome to the ESPN Home Run Tracker! Check out the ESPN MLB Scoreboard throughout the 2014 season! Contact us at grybar@hittrackeronline.com.
Season:
Ballpark detail for Great American Ball Park
Ballpark # of Home Runs HR per game Avg.
True
Distance
Avg.
Speed
Off
Bat
Avg.
Std.
Dist.
Great American Ball Park 53 2.65 392.9 102.5 392.6

Scatter Plot of Home Runs Great American Ball Park
 Overlay Ballpark:
Without range rings   With range rings

2015 Season Home Runs for Great American Ball Park
Click headers to sort
Date Video Path Hitter Hitter
Team
Pitcher Pitcher
Team
INN Ballpark Type/
Luck
True
Dist.
Speed
Off
Bat
Elev.
Angle
Horiz.
Angle
Apex Impact Due To: Std.
Dist.
#
Parks
Wind Temp. Alt. ^
05/15/15 Video View Belt, Brandon SF Marquis, Jason CIN 1 Great Americ... ND 379 106.7 37.5 63.6 147 -7 4 3 379 30
04/27/15 Video View Bruce, Jay CIN Nelson, Jimmy MIL 2 Great Americ... PL 367 99.2 37.0 75.9 136 0 -3 3 367 17
04/29/15 Video View Frazier, Todd CIN Garza, Matt MIL 1 Great Americ... JE 382 99.8 35.4 101.9 131 0 -1 3 381 17
05/15/15 Video View Cozart, Zack CIN Bumgarner, Madison SF 1 Great Americ... JE 355 94.8 33.7 113.2 97 0 2 2 352 9
05/15/15 Video View Posey, Buster SF Marquis, Jason CIN 3 Great Americ... ND 417 108.7 30.7 119.1 102 -1 2 2 415 30
05/12/15 Video View Frazier, Todd CIN Foltynewicz, Mike ATL 1 Great Americ... PL 372 97.6 33.2 112.6 102 5 -1 2 367 19
04/08/15 Video View Frazier, Todd CIN Cole, Gerrit PIT 1 Great Americ... ND 409 105.6 30.6 112.1 104 0 -1 2 408 30
04/12/15 Video View Peralta, Jhonny STL Diaz, Jumbo CIN 8 Great Americ... PL 361 97.3 34.6 113.8 108 -2 0 2 361 24
05/25/15 Video View Frazier, Todd CIN Butler, Eddie COL 1 Great Americ... JE 398 100.2 31.5 93.5 119 -8 0 2 403 18
05/26/15 Video View Hundley, Nick COL Lorenzen, Michael CIN 5 Great Americ... ND 395 103.6 31.4 115.0 102 -2 0 2 395 30
05/15/15 Video View Hamilton, Billy CIN Bumgarner, Madison SF 5 Great Americ... JE 355 97.0 29.0 117.9 74 0 0 1 354 12
05/16/15 Video View Belt, Brandon SF Leake, Mike CIN 2 Great Americ... PL 420 104.4 25.3 83.9 89 -1 0 1 420 24
05/16/15 Video View Crawford, Brandon SF Leake, Mike CIN 5 Great Americ... PL 408 102.1 29.4 79.7 104 -2 0 1 408 28
05/16/15 Video View Bruce, Jay CIN Vogelsong, Ryan SF 6 Great Americ... PL 368 98.8 28.8 68.0 83 -4 0 1 371 23
05/17/15 Video View Pence, Hunter SF Desclafani, Anthony CIN 3 Great Americ... JE 366 109.6 21.1 122.1 49 1 1 1 365 23
05/17/15 Video View Phillips, Brandon CIN Petit, Yusmeiro SF 5 Great Americ... JE 381 97.3 29.5 103.0 89 1 1 1 378 10
05/11/15 Video View Simmons, Andrelton ATL Leake, Mike CIN 4 Great Americ... JE 404 101.5 26.0 97.2 83 0 0 1 403 15
05/13/15 Video View Byrd, Marlon CIN Stults, Eric ATL 2 Great Americ... JE 353 94.9 31.9 114.7 87 1 0 1 351 8
05/13/15 Video View Frazier, Todd CIN Stults, Eric ATL 3 Great Americ... PL 428 104.3 26.6 90.8 96 0 0 1 427 26
04/26/15 Video View Montero, Miguel CHC DeSclafani, Anthony CIN 2 Great Americ... PL 387 100.4 28.5 106.4 88 -1 -2 1 388 30
04/26/15 Video View Frazier, Todd CIN Arrieta, Jake CHC 4 Great Americ... PL 365 101.9 26.8 122.5 68 0 -1 1 365 29
04/28/15 Video View Phillips, Brandon CIN Lohse, Kyle MIL 4 Great Americ... JE 413 102.1 26.3 92.0 89 0 -1 1 413 18
04/28/15 Video View Byrd, Marlon CIN Lohse, Kyle MIL 4 Great Americ... PL 386 101.1 26.6 73.5 77 0 -1 1 386 25
04/28/15 Video View Ramirez, Aramis MIL Cueto, Johnny CIN 5 Great Americ... ND 444 114.4 24.6 109.5 82 0 -1 1 444 30
04/29/15 Video View Braun, Ryan MIL Lorenzen, Michael CIN 5 Great Americ... ND 431 108.3 24.3 80.3 82 0 0 1 431 30
04/29/15 Video View Barnhart, Tucker CIN Garza, Matt MIL 5 Great Americ... PL 399 100.9 29.8 77.0 99 0 0 1 398 28
04/29/15 Video View Braun, Ryan MIL Diaz, Jumbo CIN 8 Great Americ... PL 421 103.5 27.9 96.3 99 0 -1 1 420 29
04/29/15 Video View Bruce, Jay CIN Jeffress, Jeremy MIL 9 Great Americ... JE 417 102.1 26.8 91.0 90 1 -1 1 414 21
04/06/15 Video View Bruce, Jay CIN Liriano, Francisco PIT 4 Great Americ... PL 409 107.4 24.0 74.4 73 0 0 1 409 29
04/06/15 Video View McCutchen, Andrew PIT Gregg, Kevin CIN 8 Great Americ... JE 398 99.9 27.3 83.4 88 0 -1 1 398 12
04/06/15 Video View Frazier, Todd CIN Watson, Tony PIT 8 Great Americ... ND 396 104.4 30.7 117.7 96 0 -1 1 395 30
04/09/15 Video View Alvarez, Pedro PIT DeSclafani, Anthony CIN 6 Great Americ... PL 368 97.2 31.1 110.6 92 -1 0 1 368 19
04/09/15 Video View Votto, Joey CIN Burnett, A.J. PIT 6 Great Americ... JE 413 101.8 29.0 86.9 106 -2 1 1 414 23
04/10/15 Video View Grichuk, Randal STL Marquis, Jason CIN 2 Great Americ... PL 418 108.2 22.9 101.1 72 0 0 1 418 30
04/11/15 Video View Adams, Matt STL Cueto, Johnny CIN 4 Great Americ... PL 350 96.2 31.1 58.2 81 0 -2 1 350 25
04/12/15 Video View Bruce, Jay CIN Martinez, Carlos STL 2 Great Americ... PL 414 102.2 28.6 93.4 105 -3 0 1 416 24
04/12/15 Video View Hamilton, Billy CIN Martinez, Carlos STL 5 Great Americ... PL 398 99.8 28.4 82.8 95 -2 0 1 399 15
04/12/15 Video View Carpenter, Matt STL Gregg, Kevin CIN 11 Great Americ... JE 411 102.7 24.9 86.2 80 0 0 1 410 13
04/24/15 Video View Rizzo, Anthony CHC Leake, Mike CIN 4 Great Americ... PL 395 103.7 23.8 77.4 70 0 0 1 395 21
04/24/15 Video View Coghlan, Chris CHC Leake, Mike CIN 7 Great Americ... PL 357 96.4 32.8 114.3 96 -2 -1 1 359 21
05/25/15 Video View Arenado, Nolan COL Marquis, Jason CIN 4 Great Americ... PL 388 101.3 28.3 108.3 88 -3 0 1 390 30
05/25/15 Video View Byrd, Marlon CIN Butler, Eddie COL 6 Great Americ... PL 368 101.3 25.7 65.5 67 -1 0 1 368 22
05/14/15 Video View Byrd, Marlon CIN Romo, Sergio SF 8 Great Americ... PL 390 107.1 22.3 107.1 60 0 0 0 390 25
05/16/15 Video View Blanco, Gregor SF Leake, Mike CIN 3 Great Americ... JE 410 104.3 23.1 84.4 72 0 0 0 409 15
05/17/15 Video View Bruce, Jay CIN Affeldt, Jeremy SF 7 Great Americ... PL 420 106.3 22.5 85.0 73 1 1 0 419 23
05/17/15 Video View Belt, Brandon SF Diaz, Jumbo CIN 8 Great Americ... JE 398 102.2 24.9 100.0 76 -1 0 0 398 20
04/28/15 Video View Votto, Joey CIN Lohse, Kyle MIL 1 Great Americ... JE 389 103.0 22.9 80.0 65 0 0 0 389 8
04/28/15 Video View Braun, Ryan MIL Cueto, Johnny CIN 7 Great Americ... PL 405 108.6 23.0 73.1 66 0 -1 0 405 29
04/29/15 Video View Lind, Adam MIL Lorenzen, Michael CIN 2 Great Americ... JE 415 106.3 21.4 86.5 67 0 0 0 414 18
04/29/15 Video View Davis, Khris MIL Lorenzen, Michael CIN 2 Great Americ... PL 423 105.4 23.5 92.6 79 0 0 0 423 25
04/10/15 Video View Votto, Joey CIN Lackey, John STL 1 Great Americ... JE 367 99.1 25.8 108.5 68 -1 0 0 367 11
04/10/15 Video View Votto, Joey CIN Lackey, John STL 3 Great Americ... JE 381 102.7 23.6 104.8 65 0 0 0 382 14
04/11/15 Video View Frazier, Todd CIN Wacha, Michael STL 1 Great Americ... JE 360 105.9 22.9 123.2 53 0 -1 0 360 21


About HitTracker | Contact Us
© 2006-2015 HitTrackerOnline